Regional Weather Roundup
Issued by NWS Newport/Morehead, NC

Current Version | Previous Version | Graphics & Text | Print | Product List | Glossary On
Versions: 1 2 3 4 5 6 7 8 9 10 11 12 13 14 15 16 17 18 19 20 21 22 23 24 25 26 27 28 29 30 31 32 33 34 35 36 37 38 39 40 41 42 43 44 45 46 47 48 49 50
000 ASUS42 KMHX 261110 RWRMHX WEATHER ROUNDUP FOR EASTERN NORTH CAROLINA NATIONAL WEATHER SERVICE NEWPORT/MOREHEAD CITY NC 600 AM EST MON JAN 26 2015 NOTE: "FAIR" INDICATES FEW OR NO CLOUDS BELOW 12,000 FEET WITH NO SIGNIFICANT WEATHER AND/OR OBSTRUCTIONS TO VISIBILITY NCZ015>017-031-032-045>047-102-103-261200- NORTH COAST CITY SKY/WX TMP DP RH WIND PRES REMARKS EDENTON CLOUDY 38 37 97 CALM 29.72F ELIZABETH CITY CLOUDY 42 39 89 CALM 29.73F KITTY HAWK PTSUNNY 46 43 89 E3 29.70F MANTEO CLOUDY 46 41 81 E6 29.71F $$ NCZ045>047-081-094-103-104-261200- CENTRAL COAST CITY SKY/WX TMP DP RH WIND PRES REMARKS FRISCO CLOUDY 46 44 93 CALM 29.71F SWANQUARTER NOT AVBL $$ NCZ095-097-098-100-101-261200- SOUTHERN COAST CITY SKY/WX TMP DP RH WIND PRES REMARKS BEAUFORT MOCLDY 39 38 96 CALM 29.70F CEDAR ISLAND NOT AVBL JACKSONVILLE MOCLDY 40 38 93 CALM 29.69F PINEY ISLAND N/A N/A N/A N/A MISG 29.70F WILMINGTON FAIR 42 41 96 SW5 29.69F $$ NCZ011>013-027>030-043-044-078>080-089-090>093-098-261200- COASTAL PLAIN CITY SKY/WX TMP DP RH WIND PRES REMARKS AHOSKIE CLOUDY 36 35 95 CALM 29.72S CLINTON CLOUDY 40 40 98 CALM 29.69S ELIZABETHTOWN CLOUDY 42 40 95 CALM 29.68S GOLDSBORO CLOUDY 40 40 99 E2 29.67F GREENVILLE CLOUDY 37 36 93 CALM 29.72F HAVELOCK PTCLDY 36 34 92 E3 29.71F KENANSVILLE CLOUDY 37 37 100 CALM 29.70F KINSTON NOT AVBL NEW BERN MOCLDY 37 33 85 CALM 29.70F RICHLANDS MOCLDY 37 34 87 CALM 29.70F ROCKY MOUNT CLOUDY 37 35 92 NW5 29.71F WASHINGTON CLOUDY 37 36 95 CALM 29.70F WHITEVILLE CLOUDY 45 41 88 SW3 29.68F $$ AMZ130-135-150-152-154-156-158-170-250-252-270-ANZ085-086-088-633-658-670-261200- MARINE OBSERVATIONS STATION/POSITION TIME TEMP WIND PRES WAVE SWELL AIR SEA DIR/SP/G HT/PER HT/PER (UTC) (F) (DEG/KT/KT) (MB) (FT/S) (FT/S) CHESAPEAKE LIGHT 1000 45 80/ 15/ 15 1008.1 64 E VA BEACH 1100 53 52 70/ 12/ 14 1006.4 3/ 9 3/ 9 DUCK 1100 45 44 70/ 9/ 10 1005.4 2 E DUCK 1100 43 N/A 2/10 2/11 10 NE DUCK 1000 44 N/A 2/ 9 2/12 OREGON INLET 1100 47 46 50/ 7/ 9 1005.9 13E OREGON INLT 1100 46 N/A 3/ 8 2/11 HATTERAS CG 1100 52 54 160/ 2/ 2 1006.3 DIAMOND BUOY 1100 60 69 290/ 10/ 14 1005.8 3/ 8 3/ 8 17 S OCRACOKE NOT AVBL CAPE LOOKOUT 1000 51 300/ 4/ 4 1006.3 BEAUFORT LAB 1100 46 50 340/ 2/ 2 1004.9 27 SE WRIGHTSVLE NOT AVBL 5 SE WRIGHTSVLE 1000 54 52 230/ 6/ 6 1005.6 225 S CAPE HAT 1009 69 72 220/ 21/ 27 1008.6 5/ 6 2/ 9 41 SE CHARLESTON 1100 60 69 260/ 21/ 27 1005.4 7/ 7 2/10 $$

USA.gov is the U.S. government's official web portal to all federal, state and local government web resources and services.